Meath Environmental Platform

Observations for Trim Market St

Time AQI Temp °C Hum % Pres Pa CO μg/m³ H₂S μg/m³ NO μg/m³ NO₂ μg/m³ O₃ μg/m³ SO₂ μg/m³ PM1 μg/m³ PM2.5 μg/m³ PM10 μg/m³
Saturday 11 July 2026
12:20 1 38.6 28 66,772 0 0 0 0 22.44 3.36 1.43 5.04 5.54
12:19 1 38.5 28 66,778 0 0 0 0 14.32 3.66 0.71 3.94 4.33
12:18 1 38.5 28 66,756 0 0 0 2.86 35.3 2.96 1.43 4.47 5.78
12:17 1 38.5 28 66,758 0 0 0 8.87 37.38 0.95 1.43 4.47 4.92
12:16 1 38.4 28 66,764 0 0 0 0 0.63 2.6 0.71 4.46 4.91
12:15 1 38.4 29 66,772 0 0 0 9.95 24.91 1.3 0.71 4.46 4.9
12:14 1 38.3 29 66,744 0 0 0 5.57 36.09 2.47 0.71 4.45 4.9
12:13 1 38.3 29 66,714 0 0 0 0 4.05 2.72 2.14 5 5.5
12:12 1 38.3 29 66,712 0 0 0 2.46 9.26 2.66 2.14 6.08 6.69
12:10 1 38.1 29 66,696 0 0 0 9.62 33.48 2.04 1.43 5 5.5
12:09 1 38.1 29 66,686 0 0 0 0 31.84 2.86 0 3.9 4.29
12:08 1 38 29 66,677 0 0 0 3.22 31.34 1.95 1.43 4.98 5.48
12:01 1 37.7 29 66,639 0 0 0 0 14.75 3.05 0.71 4.43 4.88
11:54 1 37.8 28 66,643 0 0 0 16.14 3.49 0.97 0 3.37 3.71
11:53 1 37.9 28 66,629 0 0 0 14.02 20.68 1.28 0 3.38 3.72
11:51 1 38 28 66,649 0 0 0 0 22.72 2.93 0.71 4.49 4.94
11:50 1 38 28 66,696 0 0 0 0 27.96 3.3 0 3.4 3.75
11:49 1 38.1 28 66,696 0 0 0 0 31.82 2.71 0 3.4 3.75
11:47 1 38.2 28 66,735 0 0 0 0 34.38 3.03 0 3.4 3.74
11:46 1 38.2 28 66,743 0 0 0 0 24.74 2.22 0 3.94 4.34